FW2488 Weather Reports


Display with metric or nautical units.
time (UTC)temp
F
wind
direction
speed
MPH
gust
MPH
rain 1hr
in
rain 24hr
in
rain mn
in
humidity
%
barometer
mb
20260906113821 65 341 1.0 4.0 0.00 0.00 0.00 88 1015.6
20260906113321 65 14 0.0 4.0 0.00 0.00 0.00 89 1015.7
20260906112821 64 22 0.0 0.0 0.00 0.00 0.00 90 1015.6
20260906112319 64 22 0.0 2.0 0.00 0.00 0.00 89 1015.6
20260906111819 64 22 0.0 2.0 0.00 0.00 0.00 90 1015.7
20260906111319 64 22 0.0 1.0 0.00 0.00 0.00 89 1015.5
20260906110819 64 22 0.0 0.0 0.00 0.00 0.00 89 1015.3
20260906110321 64 22 0.0 0.0 0.00 0.00 0.00 89 1015.3
20260906105820 64 22 0.0 0.0 0.00 0.00 0.00 89 1015.2
20260906105320 64 22 0.0 2.0 0.00 0.00 0.00 88 1015.1
20260906105252 64 22 0.0 2.0 0.00 0.00 0.00 88 1015.0
20260906104308 64 22 0.0 2.0 0.00 0.00 0.00 88 1015.0
20260906103802 64 10 0.0 1.0 0.00 0.00 0.00 88 1014.9
20260906103522 64 10 0.0 1.0 0.00 0.00 0.00 88 1014.7
20260906102750 64 10 0.0 1.0 0.00 0.00 0.00 88 1014.7
20260906102244 64 10 0.0 1.0 0.00 0.00 0.00 88 1014.6
20260906101738 65 10 0.0 3.0 0.00 0.00 0.00 88 1014.5
20260906101232 65 10 0.0 3.0 0.00 0.00 0.00 88 1014.5
20260906100952 65 5 0.0 3.0 0.00 0.00 0.00 87 1014.4
20260906100219 65 5 1.0 4.0 0.00 0.00 0.00 87 1014.3
20260906095712 65 29 0.0 3.0 0.00 0.00 0.00 87 1014.3
20260906095424 65 24 0.0 1.0 0.00 0.00 0.00 87 1014.2
20260906094700 65 24 0.0 1.0 0.00 0.00 0.00 86 1014.2
20260906094154 65 24 0.0 3.0 0.00 0.00 0.00 86 1014.2
20260906093909 65 24 0.0 3.0 0.00 0.00 0.00 86 1014.2
20260906093359 65 24 0.0 3.0 0.00 0.00 0.00 86 1014.1
20260906092636 65 24 0.0 0.0 0.00 0.00 0.00 86 1014.1
20260906092129 65 24 1.0 4.0 0.00 0.00 0.00 86 1014.0
20260906091624 65 24 1.0 4.0 0.00 0.00 0.00 87 1013.9
20260906091118 65 24 1.0 3.0 0.00 0.00 0.00 87 1013.9
20260906090612 65 24 1.0 4.0 0.00 0.00 0.00 88 1013.8
20260906090106 64 20 0.0 4.0 0.00 0.00 0.00 89 1013.7
20260906085831 64 10 0.0 0.0 0.00 0.00 0.00 89 1013.7
20260906085054 64 10 0.0 0.0 0.00 0.00 0.00 89 1013.7
20260906084547 64 10 0.0 0.0 0.00 0.00 0.00 90 1013.8
20260906084041 64 10 0.0 0.0 0.00 0.00 0.00 90 1013.8
20260906083536 64 10 0.0 0.0 0.00 0.00 0.00 90 1013.7
20260906083030 64 10 0.0 0.0 0.00 0.00 0.00 90 1013.8
20260906082746 64 10 0.0 0.0 0.00 0.00 0.00 90 1013.7
20260906082018 64 10 0.0 0.0 0.00 0.00 0.00 90 1013.7
20260906081512 64 10 0.0 0.0 0.00 0.00 0.00 90 1013.7
20260906081007 64 10 0.0 0.0 0.00 0.00 0.00 89 1013.6
20260906080500 64 10 0.0 0.0 0.00 0.00 0.00 89 1013.6
20260906075954 64 10 0.0 0.0 0.00 0.00 0.00 89 1013.5
20260906075447 64 10 0.0 0.0 0.00 0.00 0.00 90 1013.4
20260906074942 65 10 0.0 0.0 0.00 0.00 0.00 89 1013.4
20260906074657 65 10 0.0 0.0 0.00 0.00 0.00 89 1013.3
20260906073930 65 10 0.0 0.0 0.00 0.00 0.00 90 1013.4
20260906073645 65 10 0.0 0.0 0.00 0.00 0.00 90 1013.4
20260906072918 65 10 0.0 0.0 0.00 0.00 0.00 90 1013.3
20260906072411 64 10 0.0 0.0 0.00 0.00 0.00 90 1013.5
20260906071906 64 10 0.0 0.0 0.00 0.00 0.00 90 1013.5
20260906071400 64 10 0.0 0.0 0.00 0.00 0.00 90 1013.3
20260906070854 65 10 0.0 0.0 0.00 0.00 0.00 90 1013.2
20260906070348 65 10 0.0 0.0 0.00 0.00 0.00 89 1013.2
20260906065842 65 10 0.0 0.0 0.00 0.00 0.00 89 1013.4
20260906065336 65 10 0.0 0.0 0.00 0.00 0.00 88 1013.3
20260906064830 65 10 0.0 0.0 0.00 0.00 0.00 88 1013.3
20260906064548 66 10 0.0 0.0 0.00 0.00 0.00 88 1013.5
20260906063818 66 10 0.0 0.0 0.00 0.00 0.00 87 1013.5
20260906063311 66 10 0.0 0.0 0.00 0.00 0.00 87 1013.5
20260906062806 66 10 0.0 0.0 0.00 0.00 0.00 87 1013.6
20260906062300 67 10 0.0 1.0 0.00 0.00 0.00 86 1013.5
20260906061754 67 10 0.0 2.0 0.00 0.00 0.00 86 1013.6
20260906061248 67 10 0.0 2.0 0.00 0.00 0.00 86 1013.4
20260906060743 67 10 0.0 1.0 0.00 0.00 0.00 86 1013.3
20260906060235 67 10 0.0 1.0 0.00 0.00 0.00 86 1013.2
20260906055730 67 10 0.0 3.0 0.00 0.00 0.00 86 1013.3
20260906055224 67 10 0.0 3.0 0.00 0.00 0.00 86 1013.2
20260906054717 67 10 1.0 5.0 0.00 0.00 0.00 86 1013.3
20260906054212 67 10 0.0 5.0 0.00 0.00 0.00 86 1013.4
20260906053706 67 64 0.0 2.0 0.00 0.00 0.00 86 1013.5
20260906053159 67 64 0.0 1.0 0.00 0.00 0.00 86 1013.5
20260906052654 67 64 1.0 4.0 0.00 0.00 0.00 86 1013.5
20260906052148 67 64 1.0 4.0 0.00 0.00 0.00 87 1013.7
20260906051642 66 64 0.0 4.0 0.00 0.00 0.00 89 1013.5
20260906051135 65 65 0.0 3.0 0.00 0.00 0.00 90 1013.6
20260906050630 65 65 0.0 3.0 0.00 0.00 0.00 91 1013.6
20260906050124 65 67 0.0 1.0 0.00 0.00 0.00 92 1013.6
20260906045618 65 67 0.0 0.0 0.00 0.00 0.00 93 1013.7
20260906045335 65 67 0.0 0.0 0.00 0.00 0.00 94 1013.7
20260906044606 65 67 0.0 1.0 0.00 0.00 0.00 94 1013.7
20260906044059 65 67 0.0 1.0 0.00 0.00 0.00 95 1013.7
20260906043554 64 67 0.0 0.0 0.00 0.00 0.00 95 1013.8
20260906043047 64 68 0.0 0.0 0.00 0.00 0.00 95 1013.8
20260906042542 64 68 0.0 0.0 0.00 0.00 0.00 94 1013.9
20260906042036 65 68 0.0 0.0 0.00 0.00 0.00 94 1013.8
20260906041530 65 68 0.0 0.0 0.00 0.00 0.00 94 1013.7
20260906041024 65 68 0.0 0.0 0.00 0.00 0.00 94 1013.7
20260906040518 65 68 0.0 0.0 0.00 0.00 0.00 94 1013.7
20260906040012 65 68 0.0 0.0 0.00 0.00 0.00 93 1013.8
20260906035506 65 68 0.0 0.0 0.00 0.00 0.00 93 1013.8
20260906035000 65 68 0.0 0.0 0.00 0.00 0.00 93 1013.8
20260906034454 65 68 0.0 0.0 0.00 0.00 0.00 93 1013.8
20260906033948 65 68 0.0 0.0 0.00 0.00 0.00 93 1013.9
20260906033441 66 68 0.0 0.0 0.00 0.00 0.00 92 1013.9
20260906033206 66 68 0.0 0.0 0.00 0.00 0.00 92 1014.0
20260906032701 66 68 0.0 0.0 0.00 0.00 0.00 92 1014.0
20260906031938 66 68 0.0 0.0 0.00 0.00 0.00 92 1014.0
20260906031439 66 68 0.0 0.0 0.00 0.00 0.00 91 1014.1
20260906031154 66 68 0.0 0.0 0.00 0.00 0.00 91 1013.9
20260906030436 67 68 0.0 0.0 0.00 0.00 0.00 91 1013.8
20260906025937 67 68 0.0 0.0 0.00 0.00 0.00 90 1013.7
20260906025436 67 68 0.0 0.0 0.00 0.00 0.00 90 1013.7
20260906024933 67 68 0.0 0.0 0.00 0.00 0.00 90 1013.7
20260906024433 67 68 0.0 0.0 0.00 0.00 0.00 89 1013.7
20260906023934 67 68 0.0 0.0 0.00 0.00 0.00 89 1013.7
20260906023658 67 68 0.0 0.0 0.00 0.00 0.00 89 1013.7
20260906023153 68 68 0.0 0.0 0.00 0.00 0.00 89 1013.6
20260906022430 68 68 0.0 0.0 0.00 0.00 0.00 88 1013.6
20260906021930 68 68 0.0 0.0 0.00 0.00 0.00 87 1013.6
20260906021430 69 68 0.0 0.0 0.00 0.00 0.00 87 1013.6
20260906020928 69 68 0.0 0.0 0.00 0.00 0.00 87 1013.5
20260906020657 69 68 0.0 0.0 0.00 0.00 0.00 86 1013.6
20260906015928 69 68 0.0 0.0 0.00 0.00 0.00 86 1013.7
20260906015430 69 68 0.0 0.0 0.00 0.00 0.00 86 1013.5
20260906014928 70 68 0.0 0.0 0.00 0.00 0.00 85 1013.4
20260906014430 70 68 0.0 0.0 0.00 0.00 0.00 85 1013.2
20260906013926 70 68 0.0 0.0 0.00 0.00 0.00 84 1013.4
20260906013425 71 68 0.0 0.0 0.00 0.00 0.00 83 1013.3
20260906012924 71 68 0.0 0.0 0.00 0.00 0.00 83 1013.2
20260906012650 71 68 0.0 0.0 0.00 0.00 0.00 82 1013.2
20260906011924 71 68 0.0 0.0 0.00 0.00 0.00 81 1013.2
20260906011643 72 68 0.0 0.0 0.00 0.00 0.00 81 1013.1
20260906010925 72 68 0.0 0.0 0.00 0.00 0.00 80 1013.2
20260906010425 72 68 0.0 0.0 0.00 0.00 0.00 80 1013.0
20260906005926 72 68 0.0 0.0 0.00 0.00 0.00 81 1013.0
20260906005425 73 68 0.0 0.0 0.00 0.00 0.00 81 1013.0
20260906004922 73 68 0.0 0.0 0.00 0.00 0.00 81 1013.0
20260906004647 73 68 0.0 0.0 0.00 0.00 0.00 81 1013.0
20260906003922 73 68 0.0 0.0 0.00 0.00 0.00 81 1012.9
20260906003636 74 68 0.0 0.0 0.00 0.00 0.00 80 1012.9
20260906002919 74 68 0.0 0.0 0.00 0.00 0.00 80 1012.8
20260906002421 74 68 0.0 0.0 0.00 0.00 0.00 79 1012.8
20260906001916 74 68 0.0 0.0 0.00 0.00 0.00 78 1012.6
20260906001416 75 68 0.0 0.0 0.00 0.00 0.00 78 1012.6
20260906000913 75 68 0.0 0.0 0.00 0.00 0.00 77 1012.7
20260906000412 76 68 0.0 0.0 0.00 0.00 0.00 76 1012.6
20260905235908 76 68 0.0 0.0 0.00 0.00 0.00 76 1012.5
20260905235407 76 68 0.0 0.0 0.00 0.00 0.00 75 1012.6
20260905234907 77 68 0.0 0.0 0.00 0.00 0.00 74 1012.5
20260905234407 77 68 0.0 0.0 0.00 0.00 0.00 73 1012.4
20260905233906 78 68 0.0 2.0 0.00 0.00 0.00 72 1012.3
20260905233403 78 68 0.0 2.0 0.00 0.00 0.00 71 1012.4
20260905232900 78 31 0.0 2.0 0.00 0.00 0.00 69 1012.2
20260905232359 78 31 0.0 2.0 0.00 0.00 0.00 69 1012.0
20260905231901 79 31 1.0 2.0 0.00 0.00 0.00 68 1012.0
20260905231353 79 31 1.0 5.0 0.00 0.00 0.00 67 1012.0
20260905230846 79 30 2.0 5.0 0.00 0.00 0.00 68 1012.0
20260905230340 79 25 1.0 4.0 0.00 0.00 0.00 68 1012.0
20260905225834 80 25 1.0 4.0 0.00 0.00 0.00 68 1012.2
20260905225329 80 25 1.0 4.0 0.00 0.00 0.00 68 1012.2
20260905225042 80 17 1.0 4.0 0.00 0.00 0.00 68 1012.1
20260905224535 80 14 2.0 4.0 0.00 0.00 0.00 68 1012.0
20260905224033 80 38 2.0 4.0 0.00 0.00 0.00 68 1012.0
20260905223526 80 37 1.0 4.0 0.00 0.00 0.00 69 1012.0
20260905223024 80 56 1.0 2.0 0.00 0.00 0.00 69 1012.0
20260905222252 80 56 1.0 2.0 0.00 0.00 0.00 69 1011.9
20260905221747 81 47 1.0 3.0 0.00 0.00 0.00 68 1011.8
20260905221240 81 47 1.0 4.0 0.00 0.00 0.00 68 1011.8
20260905220958 81 47 1.0 3.0 0.00 0.00 0.00 68 1011.7
20260905220228 81 103 1.0 3.0 0.00 0.00 0.00 67 1011.6
20260905215722 82 106 2.0 5.0 0.00 0.00 0.00 67 1011.6
20260905215439 82 113 1.0 5.0 0.00 0.00 0.00 67 1011.5
20260905214710 82 46 2.0 5.0 0.00 0.00 0.00 67 1011.4
20260905214432 83 60 2.0 5.0 0.00 0.00 0.00 65 1011.4
20260905213658 83 51 2.0 6.0 0.00 0.00 0.00 65 1011.4
20260905213417 84 10 2.0 6.0 0.00 0.00 0.00 64 1011.3
20260905212647 84 340 2.0 7.0 0.00 0.00 0.00 63 1011.2
20260905212140 84 61 2.0 7.0 0.00 0.00 0.00 63 1011.1
20260905211634 84 10 2.0 6.0 0.00 0.00 0.00 64 1011.1
20260905211129 84 346 1.0 6.0 0.00 0.00 0.00 63 1011.1
20260905210622 84 18 1.0 6.0 0.00 0.00 0.00 63 1011.1
20260905210117 83 20 2.0 7.0 0.00 0.00 0.00 64 1011.1
20260905205610 83 10 3.0 7.0 0.00 0.00 0.00 65 1011.0
20260905205328 83 347 3.0 9.0 0.00 0.00 0.00 66 1011.0
20260905204558 83 32 3.0 9.0 0.00 0.00 0.00 65 1011.0
20260905204315 83 10 2.0 5.0 0.00 0.00 0.00 67 1011.1
20260905203813 82 180 2.0 4.0 0.00 0.00 0.00 67 1011.2
20260905203041 82 97 1.0 4.0 0.00 0.00 0.00 68 1011.3
20260905202535 82 89 2.0 4.0 0.00 0.00 0.00 68 1011.3
20260905202029 82 102 2.0 6.0 0.00 0.00 0.00 68 1011.4
20260905201522 82 345 2.0 7.0 0.00 0.00 0.00 69 1011.3
20260905201459 81 355 2.0 7.0 0.00 0.00 0.00 70 1011.3
20260905200510 81 55 1.0 3.0 0.00 0.00 0.00 72 1011.4
20260905200004 80 41 2.0 5.0 0.00 0.00 0.00 72 1011.6
20260905195459 80 101 2.0 5.0 0.00 0.00 0.00 71 1011.6
20260905194952 80 37 2.0 5.0 0.00 0.00 0.00 71 1011.5
20260905194446 80 32 2.0 6.0 0.00 0.00 0.00 71 1011.5
20260905194301 81 114 2.0 6.0 0.00 0.00 0.00 70 1011.5
20260905194212 81 93 1.0 6.0 0.00 0.00 0.00 71 1011.6
20260905192928 81 181 1.0 3.0 0.00 0.00 0.00 70 1011.5
20260905192422 81 181 2.0 7.0 0.00 0.00 0.00 71 1011.6
20260905191916 80 181 3.0 7.0 0.00 0.00 0.00 71 1011.7
20260905191410 80 170 3.0 7.0 0.00 0.00 0.00 70 1011.7
20260905190905 80 172 3.0 7.0 0.00 0.00 0.00 70 1011.8
20260905190358 80 74 2.0 7.0 0.00 0.00 0.00 71 1011.9
20260905185852 80 172 1.0 6.0 0.00 0.00 0.00 72 1012.0
20260905185606 80 94 2.0 6.0 0.00 0.00 0.00 72 1012.0
20260905184840 80 81 1.0 4.0 0.00 0.00 0.00 73 1012.1
20260905184334 80 97 1.0 3.0 0.00 0.00 0.00 75 1012.1
20260905183828 80 71 1.0 3.0 0.00 0.00 0.00 75 1012.3
20260905183322 80 68 1.0 5.0 0.00 0.00 0.00 75 1012.3
20260905182817 80 116 1.0 5.0 0.00 0.00 0.00 74 1012.4
20260905182315 80 92 1.0 4.0 0.00 0.00 0.00 75 1012.5
20260905181815 80 89 2.0 4.0 0.00 0.00 0.00 74 1012.6
20260905181810 80 88 1.0 4.0 0.00 0.00 0.00 73 1012.6
20260905180813 80 87 2.0 5.0 0.00 0.00 0.00 73 1012.7
20260905180311 81 31 1.0 5.0 0.00 0.00 0.00 72 1012.6
20260905175809 81 51 1.0 3.0 0.00 0.00 0.00 73 1012.6
20260905175307 81 108 1.0 3.0 0.00 0.00 0.00 73 1012.6
20260905175029 81 110 1.0 3.0 0.00 0.00 0.00 73 1012.6
20260905174521 81 110 1.0 4.0 0.00 0.00 0.00 74 1012.6
20260905173802 81 107 2.0 4.0 0.00 0.00 0.00 73 1012.7
20260905173524 81 29 1.0 4.0 0.00 0.00 0.00 72 1012.9
20260905172800 81 41 0.0 2.0 0.00 0.00 0.00 73 1012.9
20260905172258 81 41 1.0 3.0 0.00 0.00 0.00 72 1012.9
20260905171759 81 41 1.0 3.0 0.00 0.00 0.00 72 1012.9
20260905171257 81 46 2.0 6.0 0.00 0.00 0.00 72 1012.9
20260905170759 81 97 2.0 6.0 0.00 0.00 0.00 71 1012.9
20260905170257 81 27 1.0 4.0 0.00 0.00 0.00 72 1012.9
20260905165759 81 26 1.0 3.0 0.00 0.00 0.00 73 1012.9
20260905165257 81 22 1.0 4.0 0.00 0.00 0.00 74 1013.0
20260905164757 81 22 1.0 6.0 0.00 0.00 0.00 73 1012.8
20260905164256 81 34 2.0 6.0 0.00 0.00 0.00 74 1012.8
20260905163753 81 70 1.0 4.0 0.00 0.00 0.00 73 1012.8
20260905163253 81 24 1.0 5.0 0.00 0.00 0.00 74 1012.8
20260905162755 80 24 2.0 7.0 0.00 0.00 0.00 73 1012.9
20260905162514 81 47 2.0 8.0 0.00 0.00 0.00 74 1013.0
20260905161753 81 109 2.0 6.0 0.00 0.00 0.00 73 1013.2
20260905161515 81 103 2.0 6.0 0.00 0.00 0.00 73 1013.2
20260905160751 81 93 2.0 7.0 0.00 0.00 0.00 74 1013.3
20260905160252 81 101 2.0 7.0 0.00 0.00 0.00 72 1013.3
20260905160006 80 59 1.0 3.0 0.00 0.00 0.00 73 1013.2
20260905155248 80 60 1.0 4.0 0.00 0.00 0.00 74 1013.3
20260905155006 80 56 1.0 4.0 0.00 0.00 0.00 73 1013.5
20260905154247 80 22 1.0 4.0 0.00 0.00 0.00 73 1013.5
20260905154006 80 22 2.0 4.0 0.00 0.00 0.00 73 1013.6
20260905153509 80 59 2.0 4.0 0.00 0.00 0.00 72 1013.7
20260905152749 80 75 1.0 6.0 0.00 0.00 0.00 72 1013.6
20260905152247 80 85 2.0 6.0 0.00 0.00 0.00 72 1013.6
20260905151749 80 29 3.0 6.0 0.00 0.00 0.00 72 1013.7
20260905151246 80 85 2.0 6.0 0.00 0.00 0.00 72 1013.7
20260905150745 81 93 2.0 6.0 0.00 0.00 0.00 70 1013.7
20260905150245 81 110 2.0 6.0 0.00 0.00 0.00 71 1013.5
20260905150010 81 79 2.0 6.0 0.00 0.00 0.00 71 1013.6
20260905145514 81 51 2.0 5.0 0.00 0.00 0.00 72 1013.5
20260905144746 81 49 2.0 5.0 0.00 0.00 0.00 71 1013.4
20260905144247 81 353 2.0 8.0 0.00 0.00 0.00 74 1013.3
20260905143745 80 10 2.0 8.0 0.00 0.00 0.00 72 1013.3
20260905143245 80 87 2.0 8.0 0.00 0.00 0.00 73 1013.2
20260905142747 80 53 3.0 8.0 0.00 0.00 0.00 74 1013.1
20260905142241 80 0 3.0 9.0 0.00 0.00 0.00 74 1013.1
20260905142225 80 105 3.0 9.0 0.00 0.00 0.00 74 1013.0
20260905141235 80 85 3.0 9.0 0.00 0.00 0.00 74 1013.0
20260905140736 79 105 3.0 9.0 0.00 0.00 0.00 75 1013.0
20260905140235 79 43 3.0 9.0 0.00 0.00 0.00 76 1013.0
20260905135735 79 0 3.0 9.0 0.00 0.00 0.00 77 1013.0
20260905135236 79 105 3.0 9.0 0.00 0.00 0.00 77 1013.1
20260905134737 79 83 3.0 8.0 0.00 0.00 0.00 79 1013.1
20260905134235 78 10 3.0 8.0 0.00 0.00 0.00 78 1013.0
20260905133737 78 70 3.0 9.0 0.00 0.00 0.00 79 1013.0
20260905133234 78 27 3.0 9.0 0.00 0.00 0.00 80 1013.0
20260905132736 78 16 4.0 10.0 0.00 0.00 0.00 81 1013.0
20260905132234 77 10 4.0 10.0 0.00 0.00 0.00 80 1013.0
20260905131733 77 27 3.0 9.0 0.00 0.00 0.00 80 1013.1
20260905131235 77 83 3.0 11.0 0.00 0.00 0.00 79 1013.2
20260905130731 77 33 3.0 11.0 0.00 0.00 0.00 81 1013.1
20260905130231 76 58 3.0 9.0 0.00 0.00 0.00 85 1013.0
20260905125731 76 10 3.0 8.0 0.00 0.00 0.00 87 1012.8
20260905125225 76 58 2.0 8.0 0.00 0.00 0.00 89 1012.8
20260905124719 75 23 2.0 6.0 0.00 0.00 0.00 90 1012.8
20260905124431 75 32 1.0 4.0 0.00 0.00 0.00 91 1013.0
20260905123708 75 32 1.0 5.0 0.00 0.00 0.00 91 1012.9
20260905123202 75 29 2.0 5.0 0.00 0.00 0.00 91 1012.8
20260905122656 75 44 2.0 6.0 0.00 0.00 0.00 91 1012.8
20260905122149 75 43 2.0 6.0 0.00 0.00 0.00 92 1013.0
20260905121644 75 29 2.0 6.0 0.00 0.00 0.00 92 1013.0
20260905121356 75 30 2.0 6.0 0.00 0.00 0.00 92 1012.9
20260905120632 75 54 1.0 5.0 0.00 0.00 0.00 93 1012.9
20260905120126 74 43 1.0 3.0 0.00 0.00 0.00 93 1012.8
20260905115620 74 341 1.0 3.0 0.00 0.00 0.00 94 1012.7
20260905115114 74 338 0.0 3.0 0.00 0.00 0.00 94 1012.6
20260905114608 74 315 0.0 3.0 0.00 0.00 0.00 95 1012.6
20260905114102 74 315 0.0 3.0 0.00 0.00 0.00 95 1012.6
20260905114042 74 0 1.0 4.0 0.00 0.00 0.00 94 1012.5